Location: Friedrichshafen
(47.6598°N, 9.4819°E)
Time: 02:14:15
(UTC+01:00)

ISS - Pass Details

Date: 14 February 2018
Orbit: 403 x 407 km, 51.6° (Epoch: 22 February)

Event Time Altitude Azimuth Distance (km) Brightness Sun altitude
Rises 18:24:34 0° 284° (WNW) 2,320 1.4 -7.5°
Reaches altitude 10° 18:27:17 10° 260° (W) 1,457 0.8 -8.0°
Maximum altitude 18:29:12 15° 224° (SW) 1,200 -0.6 -8.3°
Drops below altitude 10° 18:31:07 10° 188° (S) 1,451 -0.8 -8.6°
Sets 18:33:49 0° 163° (SSE) 2,306 -0.1 -9.1°
